Regional Weather Roundup
Issued by NWS

Home | Current Version | Previous Version | Text Only | Print | Product List | Glossary On
Versions: 1 2 3 4 5 6 7 8 9 10 11 12 13 14 15 16 17 18 19 20 21 22 23 24 25 26 27 28 29 30 31 32 33 34 35 36 37 38 39 40 41 42 43 44 45 46 47 48 49 50
000
ASUS44 KFWD 311715
RWRTX
NORTH TEXAS HOURLY WEATHER ROUNDUP
NATIONAL WEATHER SERVICE FORT WORTH TX
1100 AM CST SAT JAN 31 2015

NOTE: "FAIR" INDICATES FEW OR NO CLOUDS BELOW 12,000 FEET WITH NO
SIGNIFICANT WEATHER AND/OR OBSTRUCTIONS TO VISIBILITY.

TXZ118-119-311800-
DALLAS/FORT WORTH METROPLEX

CITY           SKY/WX    TMP DP  RH WIND       PRES   REMARKS
DFW AIRPORT    CLOUDY    49  33  54 SE14      30.17F
DALLAS LOVE    CLOUDY    50  33  52 SE12      30.19F
FTW MEACHAM    CLOUDY    51  34  52 SE14      30.16F
DAL-EXECUTIVE  CLOUDY    51  34  52 SE12      30.17F
FTW-ALLIANCE   CLOUDY    49  32  52 SE13      30.16F
FTW-SPINKS     CLOUDY    48  34  57 E13       30.18F
ARLINGTON      CLOUDY    51  33  50 SE13      30.17F
GRAND PRAIRIE  PTSUNNY   50  36  57 SE9       30.19F
ADDISON        CLOUDY    48  30  49 SE12      30.20F
MESQUITE       CLOUDY    50  34  53 E13       30.21S
LANCASTER      PTSUNNY   50  33  52 SE10      30.21F
$$

TXZ091>094-102>105-117-120-121-131>134-311800-
NORTH CENTRAL TEXAS

CITY           SKY/WX    TMP DP  RH WIND       PRES   REMARKS
SHRMAN/DENISON DRIZZLE   47  37  66 SE13      30.22S
GAINESVILLE    CLOUDY    46  34  62 SE13      30.20F
BOWIE          CLOUDY    48  33  56 SE12G21   30.12F
BRIDGEPORT     CLOUDY    49  35  60 SE9G16    30.16F
DECATUR        CLOUDY    47  33  57 SE16      30.14F
DENTON         CLOUDY    48  33  56 SE12      30.17F
MCKINNEY       CLOUDY    50  34  54 SE9       30.21S
GREENVILLE     CLOUDY    50  32  50 SE12      30.22F
ROCKWALL       CLOUDY    50  34  53 SE9G18    30.20S
TERRELL        CLOUDY    51  33  50 SE10      30.22F
WAXAHACHIE     CLOUDY    50  37  59 E10       30.20F
CLEBURNE       CLOUDY    48  36  61 SE13G18   30.18F
GRANBURY       CLOUDY    50  36  59 E14       30.16F
$$

TXZ083>090-098>101-113>116-127>130-139>142-154-155-311800-
WESTERN NORTH TEXAS

CITY           SKY/WX    TMP DP  RH WIND       PRES   REMARKS
WICHITA FALLS  RAIN      43  39  86 E10       30.13F FOG     WCI  37
WF-KICKAPOO    RAIN      37  33  85 E5        30.15F WCI  34
VERNON         CLOUDY    43  38  83 SE12      30.10F WCI  37
ABILENE        LGT RAIN  45  43  93 S10       30.06F FOG     WCI  40
ABILENE-DYESS  LGT RAIN  45  45 100 SE8       30.05F FOG
BRECKENRIDGE   CLOUDY    49  38  66 SE8       30.09S
GRAHAM         CLOUDY    46  37  72 SE8       30.10F
MINERAL WELLS  CLOUDY    48  34  58 SE15      30.12F
STEPHENVILLE   CLOUDY    46  38  72 SE12G18   30.14F
COMANCHE       CLOUDY    46  42  84 SE13G18   30.11F
BROWNWOOD      LGT RAIN  48  45  87 SE12      30.08F
COLEMAN        RAIN      46  45  94 SE9       30.08S
$$

TXZ143>147-156>162-174-175-311800-
CENTRAL TEXAS

CITY           SKY/WX    TMP DP  RH WIND       PRES   REMARKS
WACO           CLOUDY    48  37  65 SE7       30.17F
WACO-TSTC      CLOUDY    50  37  62 SE8       30.17F
WACO-MCGREGOR  CLOUDY    48  36  61 SE10      30.18F
HILLSBORO      CLOUDY    49  36  61 SE12      30.17F
CORSICANA      CLOUDY    52  35  52 SE14      30.20F
MEXIA          CLOUDY    47  37  66 MISG      30.18F
HEARNE         CLOUDY    51  41  66 E12       30.19F
CAMERON        CLOUDY    51  42  70 E7        30.16F
TEMPLE         CLOUDY    48  36  61 E12       30.15F
KILLEEN        CLOUDY    46  43  90 SE10      30.13F FOG
KILLEEN-SKYLRK CLOUDY    46  37  71 SE9       30.12F
FORT HOOD      CLOUDY    47  42  82 E9        30.13F HAZE
GATESVILLE     CLOUDY    46  43  87 SE7       30.16F HAZE
HAMILTON       CLOUDY    47  39  71 SE15      30.13F
LAMPASAS       CLOUDY    45  43  92 SE7       30.11F FOG
$$

TXZ095>097-106>112-122>126-135>138-148>153-164>167-311800-
EAST TEXAS

CITY           SKY/WX    TMP DP  RH WIND       PRES   REMARKS
PARIS          CLOUDY    48  30  49 SE18      30.24F
SULPHUR SPRNGS CLOUDY    49  32  52 SE14      30.24F
MOUNT PLEASANT CLOUDY    48  32  53 SE9       30.27F
GILMER         CLOUDY    48  31  52 SE9       30.24F
MINEOLA        CLOUDY    48  32  53 SE9       30.24F
TYLER          CLOUDY    51  33  50 SE13      30.22F
LONGVIEW       PTSUNNY   52  33  48 SE10      30.24F
MARSHALL       PTSUNNY   53  33  46 SE7       30.29F
ATHENS         CLOUDY    50  32  50 SE7       30.20F
PALESTINE      CLOUDY    54  36  50 SE10      30.24R
JACKSONVILLE   CLOUDY    51  33  49 MISG      30.24F
HENDERSON      PTSUNNY   52  32  46 SE10G20   30.25F
NACOGDOCHES    MOSUNNY   50  34  53 SE10      30.24F
LUFKIN         PTSUNNY   55  35  47 SE14      30.23F
$$

SUPPLEMENTAL OBSERVATIONS (CENTRAL)

CITY           SKY/WX    TMP DP  RH WIND       PRES   REMARKS
LAKE TEXOMA      N/A     46  32  57 SE8         N/A
CADDO GRASSLND   N/A     50  34  53 S7G16       N/A
PAT MAYSE LAKE   N/A     45  30  57 E12         N/A  WCI  39
GREENVILLE       N/A     48  32  53 SE12        N/A
CEDAR HILL       N/A     52  34  50 E5G14       N/A
PALESTINE        N/A     54  34  47 SE8         N/A
LAKE LIMESTONE   N/A     52  37  58 SE9         N/A
MCGREGOR         N/A     48  39  71 SE7         N/A
TEMPLE           N/A     48  39  71 E10         N/A
$$

SUPPLEMENTAL OBSERVATIONS (WEST)

CITY           SKY/WX    TMP DP  RH WIND       PRES   REMARKS
MILLERS CREEK    N/A     45  39  81 SE9         N/A  WCI  40
POSSUM KINGDOM   N/A     46  34  61 SE12        N/A
LBJ GRASSLAND    N/A     48  34  57 SE10        N/A
GRANBURY         N/A     48  34  57 SE14        N/A
COMANCHE         N/A     46  39  76 SE13        N/A
HAMBY            N/A     45  39  81 S7          N/A
IVIE RESERVOIR   N/A     48  45  87 SE10        N/A
COLORADO BEND    N/A     48  45  87 SE9         N/A
$$

SUPPLEMENTAL OBSERVATIONS (EAST)

CITY           SKY/WX    TMP DP  RH WIND       PRES   REMARKS
CLARKSVILLE      N/A     48  30  49 SE13        N/A
TEXARKANA        N/A     46  30  53 SE6         N/A
LINDEN           N/A     48  32  53 SE3         N/A
CADDO LAKE       N/A     55  32  41 SE5         N/A
GILMER           N/A     50  32  50 SE7         N/A
HENDERSON        N/A     54  32  43 SE10        N/A
LUFKIN           N/A     54  34  47 MISG        N/A
N SABINE NF      N/A     54  37  54 MISG        N/A
S SABINE NF      N/A     54  36  50 E5          N/A
$$

SUPPLEMENTAL OBSERVATIONS ARE A COLLECTION OF AUTOMATED INSTRUMENTS
THAT ARE MAINTAINED BY A VARIETY OF FEDERAL AND STATE AGENCIES.
CERTAIN ELEMENTS...SUCH AS HUMIDITY VALUES AND SUSTAINED WIND
SPEEDS...MAY BE APPROXIMATED.



USA.gov is the U.S. government's official web portal to all federal, state and local government web resources and services.